This demonstration page uses our WeatherBlox Daily Observations layout. Learn more.

40.92945, -100.16068

Hourly Observations for December 17, 2015

Temp ( °F °C ) Dew Point ( °F °C ) Humidity (%) Winds ( mph kmh ) Pressure ( in mb ) Visibility ( mi km ) Precip ( " mm )
12:15 am 00:15 Cloudy 16 -9 14 -10 93 93 W 8 13 30.18 1022 10 16.09344 0 0
12:35 am 00:35 Cloudy 18 -8 16 -9 93 93 W 7 11 30.15 1021 10 16.09344 0 0
12:55 am 00:55 Cloudy 19 -7 16 -9 86 86 W 6 9 30.15 1021 10 16.09344 0 0
1:15 am 01:15 Cloudy 19 -7 16 -9 86 86 W 7 11 30.15 1021 10 16.09344 0 0
1:35 am 01:35 Cloudy 19 -7 18 -8 93 93 WNW 6 9 30.15 1021 10 16.09344 0 0
1:55 am 01:55 Cloudy 19 -7 16 -9 86 86 WNW 6 9 30.15 1021 10 16.09344 0 0
2:15 am 02:15 Cloudy 18 -8 16 -9 93 93 W 6 9 30.15 1021 10 16.09344 0 0
2:35 am 02:35 Cloudy 18 -8 14 -10 86 86 WNW 6 9 30.15 1021 10 16.09344 0 0
2:55 am 02:55 Cloudy 18 -8 14 -10 86 86 WNW 5 7 30.15 1021 10 16.09344 0 0
3:15 am 03:15 Mostly Cloudy 16 -9 14 -10 93 93 WNW 9 15 30.18 1022 10 16.09344 0 0
3:35 am 03:35 Mostly Cloudy 18 -8 14 -10 86 86 WNW 8 13 30.15 1021 10 16.09344 0 0
3:55 am 03:55 Cloudy 19 -7 16 -9 86 86 WNW 6 9 30.15 1021 10 16.09344 0 0
4:15 am 04:15 Cloudy 18 -8 14 -10 86 86 NW 7 11 30.15 1021 10 16.09344 0 0
4:35 am 04:35 Partly Cloudy 16 -9 12 -11 86 86 WNW 6 9 30.18 1022 10 16.09344 0 0
4:55 am 04:55 Partly Cloudy 14 -10 12 -11 92 92 W 7 11 30.18 1022 10 16.09344 0 0
5:15 am 05:15 Mostly Cloudy 16 -9 14 -10 93 93 WNW 7 11 30.21 1023 10 16.09344 0 0
5:35 am 05:35 Cloudy 18 -8 14 -10 86 86 WNW 7 11 30.21 1023 10 16.09344 0 0
5:55 am 05:55 Cloudy 18 -8 16 -9 93 93 NW 6 9 30.21 1023 10 16.09344 0 0
6:15 am 06:15 Cloudy 18 -8 16 -9 93 93 NW 7 11 30.21 1023 10 16.09344 0 0
6:35 am 06:35 Cloudy 19 -7 18 -8 93 93 WNW 6 9 30.21 1023 10 16.09344 0 0
6:55 am 06:55 Cloudy 21 -6 18 -8 86 86 WNW 6 9 30.21 1023 10 16.09344 0 0
7:15 am 07:15 Cloudy 21 -6 18 -8 86 86 NW 6 9 30.21 1023 10 16.09344 0 0
7:35 am 07:35 Cloudy 21 -6 18 -8 86 86 NW 6 9 30.21 1023 10 16.09344 0 0
7:55 am 07:55 Cloudy 21 -6 18 -8 86 86 NW 6 9 30.21 1023 10 16.09344 0 0
8:15 am 08:15 Mostly Cloudy 21 -6 18 -8 86 86 NNW 5 7 30.21 1023 10 16.09344 0 0
8:35 am 08:35 Partly Cloudy 18 -8 14 -10 86 86 NW 7 11 30.24 1024 10 16.09344 0 0
8:55 am 08:55 Mostly Cloudy 18 -8 14 -10 86 86 NW 6 9 30.24 1024 10 16.09344 0 0
9:15 am 09:15 Cloudy 21 -6 16 -9 80 80 NW 6 9 30.24 1024 10 16.09344 0 0
9:35 am 09:35 Cloudy 21 -6 18 -8 86 86 WNW 7 11 30.24 1024 10 16.09344 0 0
9:55 am 09:55 Cloudy 23 -5 18 -8 80 80 WNW 8 13 30.24 1024 10 16.09344 0 0
10:15 am 10:15 Cloudy 23 -5 18 -8 80 80 NW 10 17 30.27 1025 10 16.09344 0 0
10:35 am 10:35 Cloudy 23 -5 18 -8 80 80 NW 12 19 30.27 1025 10 16.09344 0 0
10:55 am 10:55 Cloudy 23 -5 18 -8 80 80 NW 10 17 30.27 1025 10 16.09344 0 0
11:15 am 11:15 Cloudy 25 -4 18 -8 74 74 NW 9 15 30.24 1024 10 16.09344 0 0
11:35 am 11:35 Cloudy 25 -4 16 -9 69 69 NW 12 19 30.24 1024 10 16.09344 0 0
11:55 am 11:55 Cloudy 23 -5 16 -9 74 74 NNW 14 22 30.27 1025 10 16.09344 0 0
12:15 pm 12:15 Cloudy 25 -4 18 -8 74 74 NW 14 22 30.24 1024 10 16.09344 0 0
12:35 pm 12:35 Mostly Cloudy 25 -4 18 -8 74 74 NW 12 19 30.24 1024 10 16.09344 0 0
12:55 pm 12:55 Mostly Cloudy 25 -4 18 -8 74 74 NW 13 20 30.24 1024 10 16.09344 0 0
1:15 pm 13:15 Mostly Cloudy 25 -4 18 -8 74 74 NW 10 17 30.24 1024 10 16.09344 0 0
1:35 pm 13:35 Partly Cloudy 25 -4 18 -8 74 74 NW 10 17 30.21 1023 10 16.09344 0 0
1:55 pm 13:55 Sunny 27 -3 18 -8 69 69 NNW 10 17 30.21 1023 10 16.09344 0 0
2:15 pm 14:15 Partly Cloudy 27 -3 19 -7 74 74 NW 12 19 30.21 1023 10 16.09344 0 0
2:35 pm 14:35 Partly Cloudy 28 -2 19 -7 69 69 NW 10 17 30.21 1023 10 16.09344 0.01 0.254
2:55 pm 14:55 Partly Cloudy 27 -3 18 -8 69 69 NW 9 15 30.21 1023 10 16.09344 0.01 0.254
3:15 pm 15:15 Sunny 28 -2 19 -7 69 69 NW 10 17 30.21 1023 10 16.09344 0 0
3:35 pm 15:35 Mostly Cloudy 28 -2 18 -8 64 64 NW 13 20 30.21 1023 10 16.09344 0 0
3:55 pm 15:55 Mostly Cloudy 28 -2 18 -8 64 64 NW 12 19 30.21 1023 10 16.09344 0 0
4:15 pm 16:15 Partly Cloudy 27 -3 18 -8 69 69 NW 8 13 30.21 1023 10 16.09344 0 0
4:35 pm 16:35 Sunny 25 -4 16 -9 69 69 WNW 7 11 30.24 1024 10 16.09344 0 0
4:55 pm 16:55 Sunny 23 -5 16 -9 74 74 WNW 7 11 30.27 1025 10 16.09344 0 0
5:15 pm 17:15 Clear 21 -6 14 -10 74 74 W 8 13 30.27 1025 10 16.09344 0 0
5:35 pm 17:35 Clear 19 -7 14 -10 79 79 W 9 15 30.27 1025 10 16.09344 0 0
5:55 pm 17:55 Clear 18 -8 12 -11 79 79 W 9 15 30.3 1026 10 16.09344 0 0
6:15 pm 18:15 Clear 16 -9 10 -12 79 79 W 8 13 30.3 1026 10 16.09344 0 0
6:35 pm 18:35 Clear 16 -9 12 -11 86 86 W 9 15 30.3 1026 10 16.09344 0 0
6:55 pm 18:55 Clear 16 -9 12 -11 86 86 W 8 13 30.3 1026 10 16.09344 0 0
7:15 pm 19:15 Clear 14 -10 10 -12 85 85 W 8 13 30.33 1027 10 16.09344 0 0
7:35 pm 19:35 Clear 16 -9 10 -12 79 79 W 7 11 30.3 1026 10 16.09344 0 0
7:55 pm 19:55 Clear 12 -11 9 -13 85 85 W 7 11 30.33 1027 10 16.09344 0 0
8:15 pm 20:15 Clear 12 -11 10 -12 92 92 W 7 11 30.33 1027 10 16.09344 0 0
8:35 pm 20:35 Clear 10 -12 7 -14 85 85 WNW 3 6 30.33 1027 10 16.09344 0 0
8:55 pm 20:55 Clear 9 -13 5 -15 85 85 W 7 11 30.36 1028 10 16.09344 0 0
9:15 pm 21:15 Clear 5 -15 1 -17 85 85 W 7 11 30.36 1028 10 16.09344 0 0
9:35 pm 21:35 Clear 9 -13 7 -14 92 92 W 9 15 30.36 1028 10 16.09344 0 0
9:55 pm 21:55 Clear 9 -13 7 -14 92 92 W 8 13 30.36 1028 10 16.09344 0 0
10:15 pm 22:15 Clear 9 -13 5 -15 85 85 W 7 11 30.36 1028 10 16.09344 0 0
10:35 pm 22:35 Clear 7 -14 3 -16 85 85 W 6 9 30.36 1028 10 16.09344 0 0
10:55 pm 22:55 Clear 7 -14 3 -16 85 85 W 6 9 30.36 1028 10 16.09344 0 0
11:15 pm 23:15 Clear 7 -14 5 -15 92 92 W 8 13 30.36 1028 10 16.09344 0 0
11:35 pm 23:35 Clear 10 -12 7 -14 85 85 WSW 8 13 30.33 1027 10 16.09344 0 0
11:55 pm 23:55 Clear 9 -13 7 -14 92 92 W 7 11 30.36 1028 10 16.09344 0 0

Powered by AerisWeather